Printer-friendly version

IAU Minor Planet Center

Minor Planet Center

MPEC 2008-C70 : 2008 CL70

The following Minor Planet Electronic Circular may be linked-to from your own Web pages, but must not otherwise be redistributed electronically.


Read MPEC 2008-C69 Read MPEC 2008-C71


M.P.E.C. 2008-C70                                Issued 2008 Feb. 11, 04:43 UT

     The Minor Planet Electronic Circulars contain information on unusual
         minor planets and routine data on comets.  They are published
   on behalf of Commission 20 of the International Astronomical Union by the
          Minor Planet Center, Smithsonian Astrophysical Observatory,
                          Cambridge, MA 02138, U.S.A.

             Prepared using the Tamkin Foundation Computer Network

                              MPC@CFA.HARVARD.EDU
          URL http://www.cfa.harvard.edu/iau/mpc.html  ISSN 1523-6714

                                   2008 CL70

Observations:
     K08C70L* C2008 02 09.34179 10 29 51.26 +00 47 32.2          19.6   EC070704
     K08C70L  C2008 02 09.35406 10 29 49.26 +00 50 20.5          19.8   EC070704
     K08C70L  C2008 02 09.36637 10 29 47.13 +00 53 08.9          20.2   EC070704
     K08C70L  C2008 02 09.37864 10 29 45.03 +00 55 57.3          20.0   EC070704
     K08C70L  C2008 02 09.39117 10 29 42.88 +00 58 49.3          19.6   EC070704
     K08C70L  C2008 02 10.06880 10 28 07.93 +03 26 17.0                 EC070J95
     K08C70L  C2008 02 10.07060 10 28 07.64 +03 26 41.0                 EC070J95
     K08C70L  C2008 02 10.07243 10 28 07.38 +03 27 04.0          19.6 R EC070J95
     K08C70L  C2008 02 10.23609 10 27 48.20 +04 01 10.5          19.8 R EC070651
     K08C70L  C2008 02 10.23685 10 27 48.15 +04 01 19.6          19.8 R EC070651
     K08C70L  C2008 02 10.23757 10 27 48.00 +04 01 28.7          20.1 R EC070651
     K08C70L  C2008 02 11.02106 10 26 04.48 +06 33 46.8                 EC070246
     K08C70L  C2008 02 11.02181 10 26 04.40 +06 33 54.4                 EC070246
     K08C70L  C2008 02 11.02245 10 26 04.28 +06 34 00.3                 EC070246
     K08C70L  C2008 02 11.02306 10 26 04.13 +06 34 09.5                 EC070246
     K08C70L  C2008 02 11.02366 10 26 04.10 +06 34 14.2                 EC070246
     K08C70L  C2008 02 11.13840 10 25 48.87 +06 55 18.4                 EC070J95
     K08C70L  C2008 02 11.14313 10 25 48.24 +06 56 10.1                 EC070J95
     K08C70L  C2008 02 11.14614 10 25 47.89 +06 56 44.0          19.7 R EC070J95

Observer details:
246 Klet Observatory-KLENOT.  Observers M. Tichy, J. Ticha.  Measurer M. Tichy.
    1.06-m KLENOT Telescope + CCD.
651 Grasslands Observatory, Tucson.  Observer J. E. McGaha.  0.62-m f/5.1
    Newtonian reflector + CCD.
704 Lincoln Laboratory ETS, New Mexico.  Observers M. Bezpalko, D. Torres,
    R. Kracke, G. Spitz, J. Kistler.  Measurers J. Stuart, S. Scruggs.  1.0-m
    f/2.15 reflector + CCD.
J95 Great Shefford.  Observer P. Birtwhistle.  0.40-m f/6.0 Schmidt-Cassegrain
    + CCD.

Orbital elements:
2008 CL70                                                Earth MOID = 0.0743 AU
Epoch 2007 Oct. 27.0 TT = JDT 2454400.5                 MPC
M 344.45181              (2000.0)            P               Q
n   0.30407072     Peri.  274.73256     +0.47504892     -0.85369741
a   2.1902128      Node   144.25187     +0.87982689     +0.46500971
e   0.6730511      Incl.   21.42174     -0.01526983     +0.23444979
P   3.24           H   23.2           G   0.15           U   8
Residuals in seconds of arc
080209 704  0.5-  0.1-    080210 J95  0.2-  0.4+    080211 246  0.4-  0.6+
080209 704  1.1+  0.2-    080210 651  0.3-  0.5+    080211 246  0.4+  1.4-
080209 704  0.8+  0.4-    080210 651  0.6+  0.3+    080211 J95  0.4-  0.1-
080209 704  0.7+  0.1+    080210 651  0.0   0.6+    080211 J95  0.2-  0.2-
080209 704  0.5+  1.0+    080211 246  0.6+  0.1+    080211 J95  0.6+  0.9+
080210 J95  0.3-  1.1-    080211 246  1.0+  0.6-
080210 J95  0.5-  0.4+    080211 246  0.5+  1.8-

Ephemeris:
2008 CL70                a,e,i = 2.19, 0.67, 21                  q = 0.7161
Date    TT    R. A. (2000) Decl.     Delta      r     Elong.  Phase     V
2008 02 04    10 48.50   -27 04.4    0.0945   1.049   130.0    46.0    19.9
2008 02 06    10 39.90   -14 51.2    0.103    1.070   142.9    33.8    19.8
2008 02 08    10 33.41   -04 45.8    0.115    1.091   153.5    23.8    19.8
2008 02 10    10 28.30   +03 12.5    0.131    1.112   161.9    16.0    19.9
2008 02 12    10 24.16   +09 24.9    0.148    1.133   168.2    10.3    20.0
2008 02 14    10 20.74   +14 15.0    0.168    1.154   171.9     7.0    20.2
2008 02 16    10 17.87   +18 02.9    0.188    1.175   172.3     6.4    20.4
2008 02 18    10 15.45   +21 03.8    0.210    1.196   170.4     7.9    20.8
2008 02 20    10 13.39   +23 28.8    0.233    1.217   167.8     9.9    21.1
2008 02 22    10 11.64   +25 26.2    0.256    1.238   165.0    11.9    21.4
2008 02 24    10 10.16   +27 01.8    0.280    1.259   162.4    13.8    21.7
2008 02 26    10 08.91   +28 20.0    0.305    1.280   159.9    15.4    22.0
2008 02 28    10 07.88   +29 24.2    0.330    1.301   157.5    16.9    22.3
2008 03 01    10 07.05   +30 17.0    0.356    1.322   155.3    18.3    22.5
2008 03 03    10 06.40   +31 00.1    0.382    1.343   153.1    19.5    22.7
2008 03 05    10 05.93   +31 35.3    0.409    1.364   151.1    20.6    22.9

Gareth V. Williams           (C) Copyright 2008 MPC           M.P.E.C. 2008-C70

Read MPEC 2008-C69 Read MPEC 2008-C71


Our Web policy. Index to the CBAT/MPC/ICQ pages.


Valid HTML 4.01!